sat.trackr.live / text

‹ back to catalog

STARLINK-32027

NORAD 60143 · 2024-120J

PAYLOAD ACTIVE UNKNOWN

§ Identity

Operator
Country
US
Launch date
2024-06-27
Launch site
AFETR
Launch vehicle
Mass (kg)
RCS (m²)

Purposes: comms

External: N2YO · Heavens-Above · Gunter

§ Orbital elements

Epoch: 2026-09-21T20:48:33.812928Z

Period
93.85 min
Inclination
53.1589°
Eccentricity
0.0001310
Mean motion
15.34381566 rev/d
Perigee alt
461.9 km
Apogee alt
463.7 km
Semi-major
6,840.9 km
B*
8.5450e-6
RAAN
124.9847°
Arg perigee
84.4105°
Mean anomaly
275.7047°
Rev number
12,654

§ Raw data

STARLINK-320271 60143U 24120J   26264.86705802 -.00000088  00000+0  85450-5 0  99922 60143  53.1589 124.9847 0001310  84.4105 275.7047 15.34381566126541

JSON: /api/v1/satellites/60143 · /tle

For live sub-satellite position, see the globe view (requires WebGL).

§ Visibility from observer

Set your observer location to see the next 7 days of passes ≥ 10°. The values pass through the URL so the page stays shareable.

No JS? Fill the form by hand. The geolocation button needs JavaScript.